Theta_e
310 310 309 309 308 308 308 308 308 308 308 307 308 308 308 309 309 309 309 308 308 308 309 309 309 310 309 309 309 309 309 309 309 309 309 308 309 309 309 309 309 309 309 309 309 309 309 308 309 308 309 309 310 311 313 316 321 324 325 327 328 328 328 327 327 327 326 325 324 324 323 323 322 322 321 319 315 309 304 303 307 308 307 309 310
313 312 311 310 310 309 308 308 308 307 307 307 307 307 308 308 308 308 308 308 308 308 309 309 309 309 309 309 309 309 308 308 308 308 308 308 308 308 309 309 309 309 309 309 309 309 308 308 308 308 308 308 309 310 310 312 315 318 321 325 326 327 327 327 327 328 327 327 326 325 324 323 323 322 322 321 320 318 313 308 309 311 312 312 311
315 315 314 313 312 311 310 309 309 308 308 308 308 308 307 307 307 307 308 308 308 308 308 309 309 309 308 308 308 308 308 307 308 308 308 308 308 308 308 308 308 308 308 308 309 308 308 308 308 308 308 308 307 308 309 310 311 312 316 321 324 325 326 326 327 327 327 327 327 326 326 324 323 323 322 321 320 320 318 314 313 313 312 312 312
319 318 317 316 315 314 313 312 310 310 309 309 309 309 308 308 308 308 308 308 308 308 308 308 309 308 308 308 308 307 308 307 308 308 308 308 308 308 308 308 308 308 308 308 308 308 308 308 308 308 308 308 308 307 308 309 310 310 311 315 320 323 324 324 325 326 326 327 327 327 326 325 324 323 322 322 321 321 319 317 315 314 313 312 312
323 322 320 319 318 317 316 314 313 312 311 311 310 310 310 309 309 309 308 308 308 308 308 308 308 308 308 308 308 308 307 308 308 308 308 308 308 308 308 308 308 308 308 307 308 307 308 308 308 308 308 308 308 308 308 307 308 309 310 311 314 318 320 322 323 324 325 326 326 326 327 325 325 324 323 323 322 321 320 318 317 315 314 313 313
322 323 323 322 321 320 319 318 317 316 315 314 313 312 311 311 310 310 310 309 309 309 308 308 308 308 308 308 308 308 308 308 308 308 308 308 308 308 308 308 308 308 308 308 308 307 307 307 307 307 307 307 307 307 308 308 307 307 308 309 310 312 314 316 319 321 323 324 325 325 326 326 326 325 324 323 322 321 320 319 319 317 316 315 314
320 321 322 322 322 321 321 320 320 320 319 318 317 316 314 312 312 311 311 311 310 310 310 309 309 309 309 310 309 309 309 309 309 309 309 309 309 309 309 310 310 310 311 311 312 312 311 309 308 307 307 307 307 307 307 307 307 307 308 308 309 309 310 311 313 315 317 320 323 324 324 325 326 325 324 323 323 322 321 320 319 318 317 317 316
318 319 320 320 321 321 321 322 321 321 321 321 321 320 318 316 314 313 312 312 311 311 311 311 310 310 310 311 311 312 312 311 312 313 313 313 313 314 314 314 314 314 315 316 317 318 318 316 314 312 309 308 307 307 307 307 307 307 307 308 308 308 309 310 310 311 312 315 319 322 324 325 325 325 324 323 322 322 322 320 319 319 319 318 317
315 316 317 318 319 319 320 321 322 322 322 322 322 322 321 320 319 317 316 315 315 314 314 315 314 313 313 313 314 315 315 316 317 317 318 318 319 319 319 319 318 318 318 319 319 320 320 321 320 318 316 313 311 309 308 307 307 307 307 307 308 308 308 309 309 310 311 312 313 316 321 323 323 324 324 323 323 323 322 321 320 319 319 318 318
313 314 314 315 316 316 317 317 318 319 320 320 320 321 322 323 322 322 321 321 320 320 320 321 320 319 318 319 319 319 319 319 320 321 321 321 321 321 321 321 321 321 321 320 321 321 321 321 321 321 320 319 317 314 311 309 308 308 307 307 307 308 308 308 309 310 311 312 313 313 314 316 319 321 323 323 323 323 323 322 321 320 319 318 318
315 315 315 315 315 315 315 315 316 316 316 316 317 318 319 320 321 321 322 322 323 323 323 323 323 322 322 322 322 322 322 322 322 322 322 322 322 322 322 322 322 321 321 321 320 320 320 320 320 320 320 320 320 318 316 314 312 310 309 309 308 308 308 308 308 309 310 312 314 315 314 313 314 316 319 321 323 323 323 324 323 322 320 319 318
318 318 317 317 317 317 317 317 317 317 317 316 316 316 316 317 318 319 320 320 320 321 321 321 321 321 321 321 321 321 321 320 320 320 319 319 319 319 319 319 320 319 319 319 318 318 318 318 319 319 319 319 319 318 317 316 315 314 313 312 311 310 308 308 308 309 309 310 312 314 316 315 314 313 315 318 320 322 323 323 324 324 322 321 320
319 319 319 319 319 319 319 319 319 319 319 319 319 319 319 319 319 320 320 320 320 320 320 321 321 321 320 321 321 320 320 320 320 320 319 319 318 318 318 318 317 318 318 318 318 319 319 318 318 318 318 318 318 318 318 317 317 317 316 316 314 313 311 310 310 309 309 309 309 311 313 315 316 315 315 317 318 319 321 321 322 323 323 323 322
322 322 322 321 320 320 320 319 320 320 320 320 320 320 320 320 321 321 321 321 321 322 322 322 323 323 323 323 322 322 321 321 321 321 321 321 320 319 319 319 319 319 320 320 320 320 320 319 319 319 318 318 318 318 319 319 319 318 317 316 315 315 314 313 313 312 311 311 311 311 312 313 316 317 317 316 317 318 318 319 320 322 322 323 323
325 325 325 324 324 323 322 321 320 320 320 320 320 320 320 320 321 321 322 322 323 323 324 324 324 325 325 324 324 324 323 323 323 323 323 322 322 321 321 321 321 321 321 321 321 321 321 321 321 321 320 320 320 320 320 320 319 319 318 317 317 316 316 315 315 314 314 314 314 314 314 314 315 318 319 318 318 318 318 318 319 320 321 322 323
325 324 324 324 325 325 325 324 323 322 321 321 320 320 321 321 321 322 323 323 324 324 324 324 324 325 325 324 324 323 324 325 325 324 323 323 323 323 322 322 321 321 321 321 322 322 322 322 321 321 321 322 321 321 320 320 320 320 319 319 319 318 318 317 317 317 316 316 315 315 315 315 315 317 319 320 321 321 320 319 319 319 319 320 321
325 324 323 323 323 324 325 325 325 325 324 323 322 322 322 322 322 322 323 323 324 324 324 324 324 325 325 325 325 325 326 326 325 324 324 324 323 323 322 322 322 322 322 322 322 322 321 320 320 320 321 321 322 321 321 321 321 320 320 320 320 320 320 320 320 320 319 318 318 317 316 315 315 315 316 318 322 323 322 321 321 320 320 319 320
325 325 323 323 322 323 323 324 325 325 325 325 324 324 323 323 323 323 323 323 323 324 325 325 324 324 325 325 325 325 325 325 324 324 324 324 323 323 322 322 323 323 322 322 322 322 319 318 318 318 319 320 321 321 321 321 321 321 321 321 321 321 321 321 321 321 321 321 321 320 319 317 316 316 316 317 319 321 322 322 322 321 321 321 321
324 325 324 323 322 323 323 323 324 324 325 325 325 325 324 324 324 324 324 324 324 324 324 325 325 325 325 325 324 324 324 323 323 323 324 324 324 324 323 322 322 322 323 323 323 321 318 317 317 318 319 319 320 320 320 321 320 320 320 320 320 321 321 321 321 321 321 321 321 321 321 320 319 318 318 318 317 318 320 322 322 322 322 322 321
323 324 324 324 324 324 323 323 324 324 324 325 324 324 324 324 325 325 325 325 325 324 324 325 325 325 324 324 324 324 323 323 323 323 322 323 323 323 323 322 322 322 323 323 322 319 317 317 318 319 319 319 319 320 320 320 320 320 320 320 320 320 320 320 321 321 321 321 321 321 321 321 321 320 320 320 319 318 318 319 321 322 322 322 322
323 324 324 324 324 324 324 324 324 324 324 324 324 324 324 325 325 325 325 325 325 325 325 325 325 325 324 324 324 323 323 322 322 322 322 322 322 322 322 322 322 323 322 322 321 318 317 318 318 318 318 318 318 319 318 319 319 319 319 320 320 320 321 321 320 321 321 321 321 321 321 321 321 321 320 320 320 320 320 319 319 319 320 321 322
322 323 324 324 325 324 324 324 324 324 324 324 324 325 324 325 325 325 325 325 325 325 324 324 324 324 324 324 323 322 322 322 322 322 322 322 322 321 321 321 321 322 322 321 320 318 318 318 317 317 318 317 317 317 317 317 317 318 318 319 319 320 320 320 321 320 320 320 320 320 321 321 320 320 320 320 320 320 320 320 320 320 319 319 320
322 322 323 324 324 324 324 324 324 324 324 324 324 324 325 324 325 325 325 325 324 324 323 323 323 323 324 323 322 321 321 322 322 322 322 321 321 321 321 321 321 322 322 321 318 318 319 317 316 317 317 317 316 317 316 316 317 317 317 317 317 317 317 317 318 318 319 319 319 319 319 319 319 319 319 319 320 320 320 321 321 321 321 320 319
322 322 322 322 323 323 323 323 324 324 323 323 324 324 325 325 325 325 325 324 323 323 323 322 321 322 322 322 321 321 321 321 321 322 322 321 322 322 322 322 321 321 321 319 318 319 319 317 316 317 317 316 316 317 317 317 317 317 317 317 316 316 316 315 316 316 317 318 319 319 319 319 318 317 317 317 318 319 320 320 321 321 321 321 321
322 322 321 322 322 322 322 322 323 323 323 323 324 325 325 325 325 325 324 324 323 322 322 321 321 321 322 322 322 321 320 320 321 322 322 322 322 323 322 323 322 321 320 319 318 318 318 316 316 317 316 316 317 317 318 317 316 316 317 317 316 316 316 316 316 317 317 318 318 319 319 319 318 318 318 317 316 317 318 319 320 320 320 321 321
321 321 321 321 321 321 321 321 321 322 322 323 325 326 325 325 325 325 324 323 322 322 321 321 320 320 321 322 321 321 321 321 321 322 322 322 323 323 323 323 322 322 321 319 320 320 317 317 317 317 316 317 317 317 316 315 315 315 316 316 316 316 316 316 316 316 316 316 317 317 317 317 317 317 318 317 316 316 316 317 318 318 319 320 321
321 320 320 320 320 320 320 320 320 321 323 324 326 326 326 325 325 325 324 323 323 323 322 321 321 320 320 320 321 321 321 321 321 321 321 322 323 323 323 323 322 322 321 321 321 320 318 318 318 318 317 317 316 315 314 314 314 314 314 314 315 315 316 316 315 315 315 315 315 315 315 316 316 317 317 317 317 317 317 317 317 317 318 319 320
321 319 319 319 319 319 319 320 321 322 324 325 326 326 326 325 325 324 324 323 323 323 322 321 321 320 321 321 321 321 321 321 321 322 322 322 323 324 323 323 323 322 322 322 322 320 319 319 319 318 317 316 315 313 313 313 313 313 314 314 314 314 315 315 315 314 315 315 315 315 315 316 316 316 317 317 317 317 317 317 317 317 317 318 319
320 319 319 319 319 319 319 320 322 323 324 325 325 325 325 325 325 325 324 323 323 323 322 321 321 321 322 322 322 322 321 321 322 322 323 324 324 323 322 322 322 323 322 321 320 320 320 320 320 318 317 316 315 315 313 312 312 312 312 313 313 314 314 314 314 314 314 315 314 314 314 314 315 316 317 316 316 317 317 317 317 317 317 318 318
319 319 319 318 319 319 320 321 322 323 324 325 325 325 325 325 325 324 324 323 323 322 322 321 321 322 323 323 323 322 321 321 322 322 323 324 323 322 322 322 322 322 321 320 320 321 321 321 320 319 318 316 316 316 313 311 312 312 311 311 311 312 312 312 312 312 313 314 313 312 311 311 312 314 315 315 315 316 316 316 316 317 317 317 317
319 319 319 319 319 319 320 321 322 323 324 324 324 324 325 324 324 324 323 323 322 322 321 320 321 322 323 323 323 322 321 321 322 323 323 323 322 323 323 322 321 321 321 320 321 321 320 320 320 319 318 317 315 313 312 311 311 310 310 310 310 310 310 310 310 310 311 311 311 311 310 309 309 310 311 311 312 314 315 315 315 315 316 316 316
319 319 319 319 319 320 320 320 321 322 323 324 324 324 324 324 323 323 322 322 322 321 320 320 320 321 323 323 323 322 321 321 322 322 322 322 322 322 321 321 322 322 322 321 321 321 320 319 318 319 319 317 315 312 311 310 309 309 309 309 309 309 309 309 309 309 309 309 309 309 310 310 309 309 309 309 310 312 314 314 314 315 315 315 316
318 318 318 319 319 319 319 319 320 322 323 323 323 323 323 322 322 322 321 321 320 320 320 320 321 322 323 323 323 322 322 322 322 322 322 322 323 322 322 322 322 321 321 321 320 320 320 318 318 318 317 315 314 312 311 309 308 308 307 307 307 307 307 307 307 307 307 307 308 308 308 309 309 309 309 309 310 311 312 313 313 314 315 316 316
317 317 317 318 318 318 318 319 320 322 322 322 322 321 321 321 320 320 320 319 319 319 319 320 321 322 323 323 323 323 323 323 323 323 323 323 323 322 321 321 321 320 319 319 319 320 320 319 318 317 316 313 312 311 310 309 308 307 306 306 305 305 305 305 305 304 305 305 305 306 307 307 308 308 309 309 309 310 310 311 312 313 314 314 315
316 316 316 316 316 317 317 318 319 320 320 320 320 319 318 318 318 318 318 317 317 318 318 319 320 322 323 323 323 322 322 323 322 322 321 322 322 320 320 319 320 320 319 319 319 320 319 319 317 314 313 312 310 309 308 308 307 306 305 305 304 304 304 303 303 303 303 303 303 304 305 305 306 307 308 309 309 309 309 309 309 310 310 310 310
316 316 316 316 316 316 317 317 317 318 318 317 317 316 316 316 316 316 316 316 317 318 318 319 320 322 322 322 322 322 322 322 322 320 320 321 321 320 319 318 318 318 319 319 319 319 318 317 315 312 311 310 309 308 307 306 305 305 304 303 303 303 303 302 302 302 302 302 302 303 303 303 304 304 305 307 308 309 309 309 309 308 308 308 308
316 316 316 316 316 316 316 316 316 316 315 315 314 314 314 314 314 315 315 316 317 318 318 319 320 322 323 323 323 322 321 321 321 320 321 321 320 319 318 318 318 319 318 318 317 316 315 314 312 311 309 309 308 307 306 305 304 303 303 302 302 302 302 302 302 301 302 302 302 302 302 302 302 302 303 304 305 307 309 309 309 309 309 308 308
316 315 316 316 315 315 315 314 314 314 314 313 313 313 314 314 314 315 316 317 317 318 319 320 321 323 323 323 322 322 321 321 321 321 321 320 318 318 317 318 318 317 315 313 312 312 311 312 311 310 309 307 306 305 304 304 303 302 302 302 302 301 301 301 301 301 301 302 302 302 302 302 302 302 302 303 303 305 307 309 310 310 310 309 309
316 316 315 315 314 314 314 314 314 314 313 314 314 314 315 315 315 316 316 317 317 318 320 321 323 323 323 323 322 322 321 321 321 320 319 318 317 316 316 315 315 314 312 311 310 310 310 310 309 308 307 306 305 304 303 302 302 302 301 301 301 301 301 301 301 301 301 302 302 302 302 302 302 302 302 302 302 303 305 306 308 309 310 310 309
315 315 315 314 314 314 314 314 314 314 314 314 315 315 315 315 316 316 316 317 318 320 321 322 322 323 323 322 322 322 321 321 320 318 317 316 315 314 314 314 312 311 310 310 310 309 309 309 308 307 306 305 303 302 301 301 301 301 301 301 300 301 301 301 301 301 301 302 302 302 302 301 301 302 302 301 301 302 303 304 306 308 309 310 309
315 314 315 314 314 314 314 314 314 314 315 315 315 315 315 315 316 316 317 319 320 321 321 321 322 322 322 322 322 321 320 318 316 315 314 313 314 313 312 311 310 310 310 310 310 309 308 307 306 305 304 303 302 301 301 301 301 301 300 300 300 301 301 301 301 301 302 302 301 301 301 301 301 301 301 301 301 301 302 303 304 306 307 309 309
315 315 315 315 315 315 314 314 314 314 314 314 314 314 315 315 316 316 318 319 320 321 321 321 322 322 321 320 319 318 316 315 313 313 313 312 311 311 310 310 310 310 310 309 308 307 306 305 304 303 302 301 301 301 301 301 301 300 300 300 300 301 301 301 302 301 301 301 301 301 301 301 301 301 301 301 301 301 302 302 303 304 305 307 309
315 315 315 315 315 315 314 314 313 313 313 313 313 313 314 315 315 316 318 319 319 320 320 320 320 320 319 318 316 314 313 313 312 312 311 311 310 310 310 310 310 309 308 307 306 305 304 303 302 301 301 301 301 301 300 300 300 300 300 300 300 300 300 300 301 301 300 300 300 300 301 300 300 300 300 300 300 301 301 301 301 302 304 306 308
316 316 316 316 315 314 314 313 313 313 312 312 312 312 313 314 315 316 317 318 319 319 319 319 318 317 316 314 313 312 312 312 311 310 310 310 310 310 309 309 308 307 305 304 304 303 303 302 301 301 301 301 301 300 300 300 299 300 300 299 299 300 300 300 300 300 300 300 299 300 300 300 300 300 300 300 300 300 300 300 300 301 302 305 307
316 316 316 315 315 315 314 314 314 313 313 312 312 313 313 314 315 316 316 317 317 317 317 316 315 313 312 312 311 311 311 310 310 310 309 309 309 308 307 306 305 304 303 303 303 302 301 301 301 301 301 301 300 300 299 299 299 299 299 299 299 299 299 299 299 299 299 299 299 299 300 300 300 300 300 300 300 300 300 300 300 300 301 304 306
316 315 316 315 315 315 315 315 314 314 314 313 312 313 313 314 315 315 315 315 314 314 313 312 312 311 311 311 310 310 310 309 309 309 308 307 306 305 304 303 303 302 302 302 301 301 300 300 300 300 300 300 299 299 298 298 299 299 299 299 299 299 299 299 299 299 299 299 299 299 300 300 300 299 300 300 300 300 300 300 299 299 300 302 303
315 315 315 315 315 315 315 315 315 314 314 313 312 312 312 313 313 312 312 312 311 311 310 310 310 310 310 310 309 309 308 308 307 306 305 304 303 303 302 302 302 301 301 301 300 300 300 300 299 299 299 298 298 298 298 298 298 298 298 298 298 298 298 298 298 299 298 299 298 298 299 300 299 299 300 300 300 300 300 300 299 299 300 300 301
314 314 314 314 314 314 314 314 314 314 314 314 313 311 311 311 311 310 310 310 310 310 310 310 310 310 309 308 307 306 305 304 303 303 302 302 302 302 301 301 301 301 300 300 300 299 299 298 298 298 298 298 297 297 298 298 298 298 298 298 298 297 298 298 298 298 298 298 298 298 298 299 299 299 299 300 299 300 300 300 299 299 299 300 300
314 313 313 314 314 314 314 314 314 314 314 314 313 312 311 311 311 310 311 311 310 310 310 309 308 307 306 305 304 303 302 302 302 302 301 301 301 301 300 300 300 299 299 299 299 298 298 298 297 297 297 297 297 297 297 297 297 297 297 297 297 297 297 297 298 298 298 298 298 298 298 299 299 298 299 299 299 299 299 299 299 299 299 299 299
313 313 313 313 313 313 313 313 313 313 313 313 312 312 311 310 310 309 309 309 308 308 307 305 304 303 302 302 301 301 301 301 301 301 301 300 300 299 299 299 298 298 298 298 297 297 297 297 297 297 297 297 297 297 297 297 297 296 296 296 296 296 296 296 297 297 297 297 298 298 298 298 298 298 298 299 299 299 299 299 299 299 299 299 299
313 313 313 313 313 313 312 312 312 312 312 311 310 310 309 308 307 306 306 305 304 304 303 302 302 301 301 301 301 301 301 300 300 300 299 299 298 298 298 298 297 297 297 297 297 297 297 297 297 297 297 297 297 297 297 297 296 296 296 296 296 295 296 296 296 296 297 297 297 297 297 297 297 297 297 298 299 299 299 299 299 299 298 298 298
Wind_Speed
21 20 19 19 18 17 17 17 17 17 17 18 18 17 17 18 18 18 18 18 20 20 21 22 23 23 23 23 23 23 23 23 23 23 22 22 22 22 21 21 22 22 21 21 21 21 21 21 21 21 20 20 22 24 25 25 24 22 22 23 25 26 26 27 27 28 29 29 29 30 28 25 22 20 20 22 24 26 28 28 24 23 23 22 21
23 22 22 21 20 19 18 18 18 18 18 19 18 18 18 18 19 19 19 19 20 21 21 22 23 23 23 23 24 24 24 24 24 23 23 22 23 23 22 21 22 23 23 22 22 22 23 23 23 23 22 21 22 24 25 26 27 27 24 23 24 26 27 28 29 29 29 30 32 31 29 30 29 24 23 23 23 24 27 28 25 22 22 22 22
23 22 22 22 21 20 20 20 20 20 20 20 19 19 20 20 20 20 20 21 21 21 22 23 23 23 24 24 24 25 24 24 24 24 23 23 23 23 23 22 22 23 24 24 24 24 24 24 24 24 24 24 23 23 24 25 27 28 28 27 25 25 27 28 29 30 30 31 32 32 31 33 33 29 28 27 26 26 25 25 23 22 22 22 22
22 22 22 22 21 21 21 21 21 21 21 21 20 20 21 21 22 22 22 22 22 22 23 24 24 23 24 25 25 25 25 25 25 25 24 23 24 24 23 23 23 24 24 25 25 25 25 26 26 26 25 25 25 25 25 25 26 27 29 30 30 28 27 27 29 30 32 32 33 34 32 33 34 32 32 31 29 28 24 22 22 22 23 23 23
22 22 22 22 22 21 21 21 20 20 20 20 21 21 22 23 23 23 23 23 23 23 23 24 24 24 24 24 25 25 25 25 25 25 25 25 25 25 24 24 25 25 25 25 26 26 27 27 27 27 27 27 26 26 26 26 26 27 28 29 32 33 32 30 30 30 31 32 33 34 33 34 35 34 34 34 31 29 25 23 22 22 23 23 24
23 23 23 23 23 22 22 21 20 19 19 19 20 21 22 23 23 23 23 23 23 23 23 24 24 24 24 24 25 25 25 25 26 26 26 26 27 27 26 26 27 27 26 26 26 27 27 28 28 28 29 29 28 28 28 27 27 27 28 28 30 32 33 34 34 33 32 32 32 33 34 35 36 36 35 33 32 30 27 26 26 23 22 23 23
24 24 24 24 24 24 23 23 22 21 20 20 20 21 21 22 22 23 23 24 24 23 24 24 25 25 24 24 26 26 27 27 27 27 27 27 28 28 28 28 28 28 28 28 27 27 27 28 29 29 30 30 30 29 29 29 28 28 28 28 29 30 31 33 35 37 37 35 33 33 34 34 36 37 35 32 32 32 29 29 28 26 25 24 24
24 24 25 25 25 25 24 24 23 23 23 22 22 22 22 22 22 22 23 24 24 24 24 25 25 25 25 26 27 28 28 28 28 28 28 28 28 28 29 29 29 29 29 29 29 29 28 28 28 29 30 31 31 31 31 30 30 30 29 29 29 30 31 32 33 36 38 39 38 36 34 34 35 37 36 34 33 33 31 29 28 30 29 28 27
23 24 25 25 25 25 25 24 24 24 24 23 24 23 23 23 24 24 24 24 24 25 25 25 26 26 26 27 29 29 29 29 30 29 30 30 30 30 30 31 31 31 30 30 30 30 30 29 29 28 29 30 30 31 31 31 31 31 31 30 30 30 31 32 33 33 35 37 39 40 38 37 37 36 38 37 36 35 33 31 31 32 31 29 29
24 24 25 25 24 25 25 24 23 24 24 24 24 24 23 23 24 24 24 24 25 25 25 26 27 28 28 29 30 31 31 32 32 32 32 32 31 31 32 32 32 32 31 31 31 31 31 31 30 30 29 29 30 30 31 31 31 32 32 31 31 31 31 32 32 32 33 34 36 38 39 40 40 39 39 38 38 38 37 36 35 35 33 31 31
26 26 26 26 25 25 25 25 24 24 24 24 24 24 23 22 22 22 23 23 24 24 25 26 27 28 28 29 30 31 32 32 33 33 33 33 32 32 32 32 31 31 30 29 29 29 29 29 29 29 28 28 28 29 29 30 30 31 31 31 32 32 32 32 32 32 32 32 32 34 36 38 39 40 40 40 39 38 38 38 38 39 37 34 35
29 28 28 27 27 27 26 26 27 26 26 25 25 25 24 23 22 22 22 23 24 23 23 24 26 27 28 29 30 31 31 32 32 32 31 31 30 30 30 30 29 27 25 25 24 24 24 25 26 26 26 26 26 25 25 26 27 27 28 29 30 31 32 32 33 33 33 32 32 33 34 35 36 37 38 40 42 41 40 40 40 41 41 41 42
31 30 30 29 29 29 29 29 29 30 29 27 26 26 25 25 24 24 24 24 25 24 23 24 26 27 28 29 30 31 32 32 31 30 29 29 29 28 27 26 23 21 21 22 22 22 23 23 24 24 24 25 25 24 24 24 25 25 26 26 27 28 30 31 32 33 34 33 33 33 34 34 35 35 34 37 41 43 43 43 43 43 42 44 45
32 31 31 31 31 31 32 32 32 33 32 31 29 29 28 28 27 27 26 26 26 25 25 26 27 27 28 30 32 32 32 31 30 30 29 27 26 25 23 22 22 22 22 22 20 20 21 22 23 25 26 26 27 27 27 27 27 26 26 26 26 27 27 29 30 31 32 33 33 34 34 35 36 35 35 35 37 40 43 44 44 44 43 44 42
30 30 30 30 31 32 33 33 34 35 34 33 33 32 31 30 29 28 28 28 28 26 26 28 27 25 24 26 26 25 28 29 27 27 25 23 24 24 24 24 23 22 21 19 20 21 23 25 26 28 29 30 30 30 30 30 29 28 28 28 28 28 28 29 29 30 31 31 33 33 34 35 36 36 35 35 35 37 40 41 43 44 44 44 43
31 31 30 30 30 31 32 33 34 35 34 34 34 33 32 31 30 29 28 29 29 27 27 27 26 23 21 20 17 18 21 21 22 26 26 25 26 25 24 23 21 21 21 22 22 24 25 26 27 28 28 29 29 29 29 29 29 28 28 28 29 29 30 30 31 31 32 33 33 34 34 35 35 36 36 35 36 36 37 39 41 43 44 45 46
33 32 31 30 30 30 31 32 33 34 34 34 34 33 32 31 31 30 29 29 29 28 28 28 27 25 24 22 17 14 14 14 18 25 27 27 27 26 25 24 24 24 24 24 23 23 23 24 25 25 25 25 25 26 26 27 27 27 27 28 28 29 30 31 32 32 33 34 34 35 35 35 35 36 36 35 36 38 38 39 39 41 42 44 46
35 34 32 31 30 30 30 30 31 32 33 34 34 34 33 32 30 29 29 28 28 28 30 30 30 28 28 28 25 21 21 21 20 22 27 30 28 27 27 27 25 25 26 26 24 22 22 22 23 23 22 22 22 22 23 24 24 25 26 26 26 27 28 29 31 31 32 33 34 34 34 35 35 35 35 35 36 38 39 39 40 41 42 43 44
35 35 34 33 31 30 30 30 30 31 31 32 33 33 32 31 30 29 28 28 28 30 30 30 32 32 31 30 30 29 28 27 23 20 23 29 28 25 26 28 27 26 27 26 24 22 22 21 20 20 19 18 18 18 19 20 20 21 22 22 22 23 25 26 27 28 29 30 31 32 32 33 34 34 35 35 35 37 38 39 41 42 42 43 44
36 36 36 36 35 33 32 32 32 31 31 31 32 31 31 30 29 28 27 28 29 30 30 30 31 33 33 31 30 30 29 27 27 24 22 27 33 31 26 25 25 25 24 23 22 21 19 18 18 17 15 15 14 15 15 16 17 18 18 18 18 19 21 22 23 24 24 25 26 27 28 29 31 32 33 34 35 35 37 38 40 42 43 44 44
37 37 37 38 38 37 36 36 35 34 33 32 31 31 31 30 30 29 28 29 30 30 30 30 31 32 33 32 30 28 28 27 26 26 25 27 34 35 30 24 20 21 20 19 22 21 18 16 14 14 14 13 13 13 14 14 14 15 15 15 16 17 18 18 19 19 19 20 20 21 22 23 25 26 27 29 30 32 33 34 37 39 42 44 44
38 37 37 38 39 39 39 39 38 36 35 34 32 31 32 31 31 30 29 30 30 30 31 31 31 32 32 32 31 28 27 27 27 27 27 28 31 34 34 30 26 25 21 18 21 23 21 17 14 13 12 12 13 13 13 12 13 14 14 14 14 15 15 16 17 18 18 19 19 20 21 22 23 24 25 26 26 28 29 31 32 35 38 41 44
39 38 38 38 39 41 41 41 40 39 38 36 34 32 31 31 31 30 30 30 31 32 32 32 31 32 31 31 31 29 28 29 29 28 28 28 29 31 31 30 30 30 26 23 23 23 21 18 16 14 13 13 13 12 12 13 14 16 16 15 15 15 16 17 18 19 19 19 20 21 22 23 24 25 27 27 28 29 29 29 30 31 33 36 39
40 40 40 40 41 43 43 43 43 42 40 38 36 33 32 32 31 31 31 31 32 32 33 33 32 32 32 30 30 30 30 30 29 28 28 27 27 29 29 27 29 30 27 24 22 20 20 18 16 15 15 14 13 13 15 17 18 18 17 17 17 17 17 18 18 19 19 19 19 20 21 22 23 24 25 27 29 30 31 30 31 32 33 34 35
41 42 43 43 44 45 45 45 44 42 41 39 37 34 33 32 31 31 31 32 33 34 34 34 33 32 31 29 29 30 30 30 29 28 28 26 26 29 29 27 28 30 28 24 22 21 21 18 15 15 16 15 15 17 19 20 21 20 19 19 20 19 18 18 18 19 19 20 20 21 22 22 23 24 25 26 27 29 31 32 33 34 34 34 35
41 43 44 45 45 46 44 43 41 40 39 37 36 34 32 32 32 32 32 33 33 34 34 33 32 32 31 29 30 31 30 29 29 29 27 25 27 29 28 28 28 27 27 26 24 22 20 17 17 17 16 15 18 20 20 21 22 21 21 22 21 19 18 18 18 19 20 21 21 21 22 23 24 25 26 26 26 26 28 31 33 34 35 36 37
41 42 44 44 45 44 42 39 38 37 37 36 35 33 33 33 33 33 33 33 33 33 33 33 32 32 32 31 31 31 30 28 28 27 25 23 25 26 27 27 26 25 26 24 23 23 21 18 17 17 17 18 19 19 20 21 22 22 21 21 21 19 17 17 18 19 19 19 20 21 22 22 22 23 24 25 26 26 27 28 31 33 35 36 37
41 41 42 43 43 41 38 37 36 35 35 35 34 33 33 34 34 34 33 33 33 32 32 33 33 32 32 32 31 30 29 27 27 26 24 23 24 25 25 24 24 25 25 22 20 21 18 16 18 19 20 21 20 18 19 20 21 21 21 21 21 20 18 17 18 19 19 19 19 21 22 22 23 23 24 25 26 27 28 29 30 31 33 34 36
41 41 41 41 40 38 36 35 34 34 34 34 34 33 33 34 34 33 33 32 32 32 32 33 33 32 31 30 30 30 28 27 27 25 23 23 23 24 23 22 23 25 24 22 23 22 17 14 17 20 21 22 20 19 20 21 19 19 20 20 21 21 19 18 19 20 20 19 19 20 21 23 24 25 25 26 28 28 29 30 31 31 33 34 35
40 40 39 39 38 36 34 33 33 33 33 33 34 33 33 33 33 33 32 32 32 33 33 33 33 32 31 29 28 29 28 25 24 23 22 23 22 22 23 23 24 25 24 24 26 28 22 16 16 19 20 20 19 18 20 21 19 19 19 20 20 20 19 19 19 20 20 19 19 20 22 23 24 26 27 29 30 30 30 31 31 32 33 34 35
39 38 38 37 36 34 33 32 32 33 33 33 33 33 33 33 33 33 33 33 33 34 34 34 34 33 32 31 29 29 27 24 23 24 24 24 23 23 24 24 24 24 25 25 28 31 28 22 18 19 19 18 18 19 20 19 19 19 20 20 20 20 20 21 20 20 20 20 21 22 23 23 24 26 28 30 30 30 31 32 32 33 34 35 35
37 37 36 36 34 33 33 33 32 32 33 33 33 33 34 34 34 34 34 33 34 35 35 35 34 33 32 32 31 29 26 24 24 24 25 24 24 24 24 23 24 25 24 25 29 33 31 26 21 18 17 17 18 20 20 19 19 19 19 19 19 20 20 21 21 21 20 21 22 23 23 23 24 26 28 29 30 31 31 33 34 34 35 36 37
36 36 35 34 33 33 33 33 32 32 33 33 33 33 34 34 34 34 34 34 34 35 35 34 35 34 32 31 30 27 25 24 24 24 24 24 24 24 23 24 25 25 25 26 30 33 32 27 23 20 19 20 20 20 21 21 20 18 18 18 19 20 20 20 21 20 20 21 22 22 22 22 22 23 25 27 29 31 33 34 35 36 37 38 39
34 35 34 34 33 33 33 33 33 33 33 33 33 34 35 34 34 34 33 33 34 34 34 34 34 33 31 29 28 26 25 25 25 25 25 24 24 25 25 25 26 25 25 25 27 31 32 30 28 24 21 21 22 20 21 23 22 20 20 19 19 20 20 20 21 21 21 21 22 23 23 22 21 21 21 23 25 28 31 33 36 37 39 40 41
33 34 34 34 33 33 33 33 33 33 33 33 34 35 35 34 33 33 33 33 34 34 33 33 33 31 30 29 28 27 26 26 26 27 26 25 25 26 26 26 26 26 25 25 27 30 32 32 30 25 22 22 22 21 22 23 22 21 21 21 20 20 19 20 20 21 20 21 22 23 23 23 23 23 22 21 21 22 25 27 31 34 37 39 41
34 35 34 34 33 33 34 34 33 34 34 34 34 34 34 33 33 33 33 33 33 32 32 31 31 31 30 30 30 29 28 28 29 27 26 26 27 27 27 26 26 25 25 25 27 29 30 31 29 25 23 23 22 22 23 22 21 21 21 20 19 19 19 19 19 20 20 19 20 21 22 23 24 24 25 24 23 22 22 23 26 29 32 34 36
35 35 35 34 33 33 34 33 33 33 33 32 33 32 32 32 32 32 31 31 31 30 30 29 29 29 30 30 29 28 28 28 27 26 26 27 27 27 26 25 25 25 25 26 27 28 29 30 28 25 23 23 22 21 20 20 20 20 19 19 19 20 20 19 18 19 20 20 21 21 23 24 25 25 26 26 25 24 23 23 25 27 29 31 33
36 36 35 34 33 32 32 31 30 30 29 30 29 29 30 29 29 29 29 29 29 28 28 28 28 28 29 28 27 26 25 26 26 27 28 28 27 27 27 26 26 27 27 26 25 25 25 26 26 25 23 21 20 19 18 19 20 19 19 19 18 18 20 21 20 20 22 23 24 25 26 27 27 27 27 27 25 23 22 23 25 27 29 30 31
35 35 34 32 31 30 29 28 27 27 26 27 27 27 27 26 27 27 27 28 28 27 27 27 27 28 28 28 27 26 27 27 28 28 28 27 27 27 27 27 27 26 25 23 21 22 23 23 23 23 22 20 18 17 16 16 18 18 20 22 20 19 20 22 22 23 24 25 27 28 28 29 30 30 29 29 27 25 24 24 25 27 27 28 30
34 32 31 29 28 26 26 25 25 25 26 26 26 26 25 25 26 26 27 27 28 27 27 27 27 28 28 28 28 28 28 27 27 27 27 27 27 27 26 26 25 23 22 21 20 20 21 21 20 20 19 18 17 16 15 15 17 18 18 21 23 23 23 24 24 26 27 28 29 29 29 29 30 30 31 31 30 28 27 25 25 26 26 27 28
31 29 28 26 26 26 26 26 26 26 27 27 27 26 26 25 26 26 27 27 27 27 27 27 27 27 28 28 27 27 26 26 26 26 26 26 26 26 25 23 21 20 20 20 20 19 19 19 18 17 17 16 15 15 15 15 17 19 18 20 22 24 26 27 26 26 27 29 30 30 29 29 30 30 30 30 30 29 29 28 26 26 27 27 28
29 27 26 26 26 26 27 27 27 27 28 27 27 27 26 26 26 26 26 27 27 27 26 26 27 27 27 26 26 26 26 26 26 26 26 25 25 24 22 21 20 20 20 20 19 18 18 17 16 15 15 14 13 15 16 16 17 19 19 21 23 24 26 28 28 26 25 28 30 31 29 27 28 30 29 29 29 29 30 30 28 27 26 26 26
29 28 28 28 28 28 28 28 28 28 27 27 26 26 26 26 26 26 26 26 26 26 26 26 26 26 26 26 26 26 27 27 26 25 25 24 23 21 20 20 19 19 19 19 18 17 17 16 15 15 15 14 13 14 16 17 17 19 19 21 23 24 26 28 29 27 25 27 30 32 31 27 27 30 29 28 29 30 31 31 29 27 26 24 24
30 30 30 30 30 29 29 28 28 27 26 25 25 25 25 25 25 25 25 25 25 25 25 26 26 26 26 27 27 27 27 26 25 24 23 22 21 21 19 19 19 18 18 18 17 17 16 16 15 14 15 15 14 13 15 17 18 19 20 20 21 24 26 26 27 27 25 26 30 33 34 30 28 30 30 28 30 32 33 33 31 29 26 23 22
32 32 32 31 31 30 29 29 28 27 26 25 25 25 24 24 25 25 25 25 25 26 26 27 27 27 28 28 28 27 26 25 23 23 22 21 21 20 18 18 18 18 18 17 17 16 16 16 16 14 14 16 15 13 14 17 19 19 20 20 21 23 26 26 27 26 24 25 28 32 35 32 29 31 31 29 31 32 33 35 34 31 27 23 22
33 33 33 32 31 30 29 29 27 27 26 25 25 25 25 25 25 26 26 26 26 27 27 28 28 28 28 27 26 25 24 23 22 22 22 21 20 19 18 18 18 18 18 17 17 17 16 16 16 13 13 16 16 14 14 17 19 20 22 22 22 24 26 27 28 27 24 24 26 29 34 33 30 32 33 31 31 32 32 34 35 32 27 23 23
34 34 33 32 31 30 29 29 28 27 26 25 26 26 26 26 26 26 27 27 27 27 27 27 27 27 26 26 25 24 23 22 22 21 20 19 19 18 17 17 17 17 17 17 17 17 16 16 16 14 14 15 15 14 15 17 19 21 23 24 24 25 27 28 28 27 26 25 24 26 33 33 30 32 34 33 32 33 32 33 35 34 28 24 25
34 33 32 31 30 30 29 28 27 27 26 25 25 26 26 26 26 27 27 27 26 26 26 26 26 26 25 25 24 23 22 21 20 19 19 18 17 18 17 17 17 16 16 17 17 17 16 16 16 15 15 14 15 15 16 17 20 21 24 25 24 25 29 30 30 29 28 26 25 26 31 33 31 32 36 35 35 34 33 32 34 34 30 28 29
35 34 32 31 30 29 29 28 27 26 25 25 25 25 25 26 26 26 27 27 27 27 26 26 26 25 25 24 23 21 20 19 19 18 18 18 18 18 17 16 16 15 15 17 17 16 16 16 16 16 16 15 15 16 16 18 20 23 25 26 25 26 29 30 31 31 30 30 27 26 30 32 31 33 36 36 37 36 34 33 34 33 33 35 36
35 33 32 30 30 29 28 27 26 25 25 25 25 25 25 25 25 26 26 26 27 27 26 26 25 24 23 22 21 20 19 19 19 18 18 17 17 16 16 15 14 14 15 18 18 17 17 17 17 17 16 16 16 17 18 20 21 23 26 27 26 27 29 30 31 33 34 33 29 26 28 31 32 34 35 37 38 38 36 34 35 35 37 40 40
33 32 31 30 30 29 28 27 26 26 25 25 25 25 26 26 25 25 26 26 26 26 25 25 24 23 22 21 20 20 19 19 18 18 17 16 16 15 15 15 14 15 17 19 18 18 18 18 17 17 16 17 18 19 20 22 23 25 27 27 27 27 29 31 31 33 34 33 30 28 30 33 34 33 33 34 37 40 40 37 37 39 40 42 43
Wind_Direction
262 263 263 262 259 257 258 259 258 255 253 255 259 261 263 266 268 269 268 268 268 268 268 268 268 268 270 271 272 272 272 273 275 277 278 278 278 277 276 275 275 275 274 273 273 273 274 274 274 273 270 266 261 258 256 253 252 256 260 263 265 266 267 269 272 275 280 282 283 289 291 286 284 284 285 285 281 276 271 267 260 257 257 253 251
261 261 263 264 263 259 257 256 257 258 258 258 261 265 267 269 269 270 269 267 267 267 267 266 266 268 270 272 273 273 274 275 276 276 276 277 277 278 276 275 274 274 273 272 272 272 271 272 273 273 272 270 267 263 261 257 254 255 255 257 261 263 266 267 267 268 270 272 276 282 284 284 284 284 285 285 284 282 277 268 258 252 252 251 250
259 261 262 264 264 262 261 259 258 258 259 261 263 266 268 268 269 268 268 267 267 267 267 266 266 267 270 272 273 275 276 278 278 277 276 276 277 278 278 277 275 274 274 274 273 273 272 272 272 272 272 272 271 268 266 262 259 256 254 253 256 259 264 265 266 266 266 265 267 273 275 276 279 281 282 280 279 282 276 263 255 250 250 250 250
257 259 261 263 263 263 262 261 260 260 261 263 264 266 266 267 267 268 269 269 268 266 267 268 268 269 270 272 274 276 278 279 278 278 277 277 277 277 278 278 277 275 275 276 276 276 275 275 274 274 273 272 272 271 269 267 265 261 258 254 253 254 258 262 265 266 266 265 264 268 268 266 271 276 277 279 280 281 276 262 254 249 249 250 249
257 258 260 261 262 263 262 262 262 262 262 263 264 264 264 266 268 268 268 268 268 267 267 268 269 270 271 273 275 277 278 278 277 277 277 277 278 278 279 279 279 278 278 278 279 279 279 279 279 278 276 275 273 272 271 269 267 265 263 259 256 254 253 256 260 263 265 266 266 266 265 262 265 270 274 278 281 283 278 269 264 253 247 250 249
260 260 261 262 263 264 264 264 264 264 264 264 264 263 264 265 268 268 268 268 267 267 267 269 270 271 273 275 276 276 276 276 275 275 276 278 279 280 281 281 282 283 283 283 281 280 281 281 280 279 278 277 276 275 273 271 269 267 265 264 261 258 256 254 254 257 259 263 265 266 266 262 261 266 269 271 276 281 274 272 275 262 251 253 251
261 262 262 263 264 265 266 266 267 267 266 265 264 264 264 265 267 267 267 268 267 268 268 269 270 272 275 276 276 275 275 275 275 275 276 278 279 281 282 283 284 285 285 285 283 282 280 280 280 279 278 277 276 275 274 273 271 268 267 266 265 263 261 259 256 255 255 257 261 265 266 264 263 265 264 262 268 275 274 274 276 267 259 258 254
259 260 261 261 263 264 265 266 267 268 267 266 265 264 264 265 266 267 268 268 269 270 271 272 272 273 274 276 276 276 276 276 277 277 278 279 280 282 283 283 283 284 283 283 284 283 282 280 279 278 277 276 276 275 273 272 271 270 269 266 265 265 264 263 261 258 256 255 256 258 262 264 266 267 265 263 263 270 273 267 263 265 264 261 258
259 259 260 261 262 263 264 265 265 266 266 266 266 265 265 265 266 267 268 270 272 273 275 276 276 274 274 275 276 277 277 277 278 279 279 280 281 282 282 282 282 282 282 282 283 283 283 282 280 278 276 276 276 275 274 273 272 271 270 269 267 265 265 264 264 262 260 257 256 256 257 260 263 265 269 270 267 268 268 261 258 261 261 260 258
259 259 261 261 263 264 265 266 265 265 266 266 267 267 266 265 265 267 268 270 272 273 275 276 276 277 277 277 279 279 279 279 280 280 281 281 281 281 281 281 281 281 281 281 281 281 282 282 281 278 276 275 275 273 272 271 271 270 269 268 267 266 266 266 266 266 264 261 259 258 258 258 259 261 265 269 270 269 268 265 261 258 260 258 254
260 260 262 263 264 266 268 268 268 267 267 267 267 267 268 268 267 268 269 270 270 270 273 276 278 279 279 279 280 280 281 281 281 282 283 283 283 282 281 280 280 280 280 280 280 280 281 281 280 279 277 275 273 272 271 271 270 270 268 267 266 265 265 266 267 267 268 266 263 261 261 261 260 259 260 262 265 266 267 265 261 260 262 256 253
263 262 263 264 266 268 269 270 270 270 269 268 269 270 271 272 271 270 270 271 271 271 273 277 280 281 280 280 280 280 280 280 281 283 284 283 283 282 281 281 280 279 279 279 279 280 281 280 279 278 278 276 274 272 271 271 271 270 270 269 267 265 263 264 265 266 267 268 267 265 265 264 263 262 259 258 260 262 263 263 262 262 260 257 260
266 266 265 266 267 268 269 269 270 270 270 270 270 271 271 271 271 270 271 272 273 274 275 276 277 279 281 282 282 282 281 282 283 283 283 283 282 281 281 280 278 277 277 278 279 280 280 279 278 277 275 274 272 270 269 269 270 270 271 270 268 266 264 263 264 264 265 266 266 266 266 267 266 264 260 257 258 260 261 262 263 263 260 260 262
265 266 265 265 265 265 266 267 267 268 269 269 269 269 269 270 270 271 272 272 272 274 274 273 274 279 284 285 284 283 282 282 283 283 283 282 281 280 279 278 278 279 279 279 281 281 280 277 277 275 273 271 271 271 271 270 269 268 267 267 266 266 265 265 265 265 265 265 265 264 264 265 265 265 263 260 258 259 260 261 262 264 264 263 260
265 265 264 262 262 262 263 263 264 266 267 268 268 267 268 269 270 271 271 271 271 270 269 271 274 278 282 284 286 287 286 286 285 284 282 280 280 279 278 279 281 280 279 281 284 283 282 281 280 278 275 274 273 272 272 271 270 267 265 264 264 264 265 265 265 266 266 267 267 265 264 263 263 264 264 263 262 261 262 262 262 264 266 266 263
264 265 265 264 263 262 262 262 263 264 266 267 267 267 267 268 268 268 268 269 270 270 269 270 271 271 271 274 281 288 288 288 287 285 284 283 283 282 281 279 278 278 281 284 285 285 286 286 285 283 281 279 276 275 274 273 271 269 266 265 265 265 265 266 266 266 267 267 267 267 266 265 264 263 262 264 265 264 264 264 264 265 265 266 267
263 264 266 267 266 264 264 263 263 264 264 265 266 267 267 266 265 265 265 265 267 270 270 269 267 264 262 262 265 273 279 284 289 288 285 284 284 284 283 281 280 282 284 285 286 289 292 291 289 286 284 282 279 277 274 273 271 270 269 268 267 266 266 266 267 266 266 266 266 266 266 266 265 264 263 262 262 263 263 264 264 265 265 266 266
263 264 265 265 264 264 265 264 264 264 264 264 264 265 265 265 264 263 263 264 265 266 266 267 269 267 263 262 261 261 266 274 284 287 285 284 284 283 281 281 283 284 286 287 290 295 295 292 290 289 286 284 280 278 276 275 274 273 273 272 270 268 266 266 265 266 266 266 266 266 266 267 266 266 266 263 260 259 261 262 263 263 264 265 265
264 262 261 261 262 262 263 264 265 265 264 263 262 262 264 264 264 263 263 264 263 262 262 264 267 269 269 269 268 267 267 270 274 279 287 288 285 282 282 284 286 286 286 287 293 298 296 293 291 289 288 287 285 284 282 279 277 275 274 273 271 268 266 265 265 265 267 267 268 269 269 270 270 270 270 269 265 261 260 260 262 263 262 263 265
265 262 260 259 261 262 263 264 265 265 265 264 262 261 261 261 262 264 264 263 262 262 263 262 264 269 271 270 270 270 268 267 269 271 277 282 283 283 285 288 290 290 288 289 294 297 293 292 294 294 295 296 294 293 289 285 282 278 276 274 270 268 266 266 268 269 270 272 273 274 275 275 276 276 275 275 274 270 266 263 262 263 263 264 264
267 264 261 260 260 261 262 264 264 265 265 264 263 260 258 259 261 263 263 263 263 263 263 262 263 267 268 269 269 268 267 267 267 267 265 270 277 281 286 288 288 289 289 290 295 298 297 295 297 301 305 306 304 301 296 291 287 283 280 276 273 272 271 270 271 272 274 276 277 278 280 281 281 282 281 282 282 279 275 271 268 266 265 266 266
269 266 264 262 261 260 260 262 264 265 264 263 262 260 259 258 259 261 262 262 263 263 263 263 263 264 264 266 266 264 262 262 261 260 259 260 267 275 282 287 288 287 287 290 295 300 305 306 308 312 312 310 308 306 300 297 295 292 289 284 280 280 278 274 271 272 273 275 277 279 279 282 283 283 284 285 286 285 282 279 275 272 269 268 267
269 268 265 263 262 261 260 261 263 264 263 261 260 261 260 259 258 259 260 261 262 263 263 263 262 262 261 262 264 263 260 259 259 258 258 260 264 270 278 286 290 289 286 290 296 301 304 309 314 317 316 314 312 309 305 306 306 305 302 298 294 293 290 284 277 275 276 278 281 282 283 284 285 286 285 285 285 285 283 282 281 279 276 273 271
267 267 265 264 263 262 262 262 261 262 262 261 259 259 261 260 258 258 259 260 261 262 262 262 261 260 260 261 262 264 263 262 261 261 262 265 268 271 276 282 287 289 289 290 296 300 302 305 308 312 315 317 318 317 316 315 314 313 310 308 306 303 299 293 284 279 278 279 281 284 286 289 291 292 292 290 287 284 282 281 282 281 279 278 276
267 266 264 264 263 264 264 265 264 263 263 262 259 258 259 260 259 257 257 259 260 260 260 261 261 261 261 261 261 262 264 264 262 262 264 268 270 269 273 278 280 286 292 293 295 297 299 299 299 305 313 318 320 321 321 320 318 317 314 312 311 308 304 299 291 284 280 279 279 279 281 285 290 292 292 293 291 287 284 281 281 281 280 279 279
266 266 264 263 264 265 267 267 265 263 262 260 258 256 257 257 256 255 256 257 258 258 259 260 260 261 261 260 261 262 262 261 260 260 260 262 264 266 271 277 277 282 288 293 298 297 293 295 298 303 313 320 320 321 322 320 319 320 318 315 312 309 305 304 301 296 289 284 282 281 281 284 287 288 289 290 291 291 287 283 281 281 280 280 279
264 264 263 262 264 266 267 266 263 261 259 257 254 253 253 253 253 253 254 255 255 255 258 260 261 261 261 260 261 261 260 258 256 257 258 257 260 265 270 272 274 279 282 286 291 288 285 293 299 304 315 321 320 320 320 319 319 321 319 314 312 309 305 304 305 303 297 289 285 283 283 284 285 286 285 285 286 288 288 284 282 280 279 279 278
261 260 260 260 263 265 265 263 261 259 256 253 252 251 250 251 251 252 253 254 254 255 258 260 261 261 261 260 260 261 261 259 258 259 259 259 262 265 266 266 270 274 276 278 280 279 283 295 299 304 315 319 318 318 318 318 318 319 317 313 312 310 308 305 304 303 299 289 283 284 285 283 281 282 283 283 284 285 285 284 282 280 279 279 278
257 256 257 260 262 262 261 260 258 255 253 251 250 249 249 250 250 251 253 254 255 257 258 259 260 260 259 258 259 260 259 257 257 257 257 258 260 260 260 260 262 265 270 274 276 280 284 288 293 301 310 314 314 314 315 316 317 316 315 313 312 311 310 309 308 306 300 291 286 289 292 288 281 280 281 282 283 283 284 284 283 281 280 280 279
254 254 257 259 260 259 258 257 255 253 251 250 249 248 248 249 250 251 253 254 255 256 257 257 258 257 257 255 255 258 258 255 254 255 256 258 256 256 259 260 258 260 265 268 274 282 285 282 285 294 302 308 308 309 313 316 316 314 314 314 313 312 311 312 311 308 302 294 292 294 294 291 285 282 282 282 282 281 282 283 283 283 282 282 282
251 253 256 257 257 257 256 255 254 252 251 249 249 249 248 249 250 252 253 253 254 255 256 256 255 254 254 253 253 256 256 253 252 254 255 254 254 257 259 258 258 259 260 263 271 279 282 282 285 290 296 302 305 308 313 315 314 314 314 314 314 314 314 313 312 309 306 304 302 300 297 292 286 283 283 283 281 279 278 280 281 281 281 282 283
250 253 254 254 255 255 255 254 253 251 250 249 248 248 249 250 251 252 252 252 252 253 254 254 254 253 251 251 254 255 253 250 250 251 252 251 254 258 257 257 260 260 261 264 267 272 278 283 285 287 291 296 300 306 309 310 310 312 313 313 314 314 313 312 312 312 313 313 310 306 303 299 293 289 287 286 283 279 277 277 278 278 280 280 281
249 251 252 253 254 254 253 252 250 249 248 248 248 249 250 250 251 251 251 250 250 250 250 250 251 251 250 251 253 253 251 250 248 248 249 250 253 254 253 256 258 256 256 260 264 271 278 283 284 286 290 294 298 302 304 305 307 309 311 314 316 315 314 315 317 319 321 321 317 314 312 308 303 297 293 289 285 280 278 278 278 278 279 280 280
249 251 252 252 253 252 252 250 248 247 247 247 248 249 249 250 250 250 249 248 248 247 247 247 248 249 249 250 251 249 248 247 246 245 246 247 249 249 247 250 253 252 253 258 263 271 276 280 284 286 289 294 297 300 302 303 307 312 316 319 320 318 320 324 324 326 328 328 324 322 320 318 315 309 303 295 288 283 281 281 280 280 280 280 281
251 252 252 252 252 251 250 248 247 247 246 247 248 248 249 250 249 249 248 247 246 245 245 246 246 247 247 247 247 246 244 243 244 244 243 243 244 245 245 247 250 253 257 260 262 268 273 276 280 285 290 292 295 299 302 306 313 318 319 322 322 322 326 329 327 328 332 332 330 329 328 328 328 325 321 315 306 300 297 292 287 284 283 282 282
253 253 252 252 251 249 248 248 247 247 247 248 249 250 250 250 248 247 246 245 244 244 244 245 246 246 246 246 247 245 242 241 242 242 240 240 242 243 244 245 249 253 258 260 261 264 269 272 278 286 291 292 294 299 304 312 318 319 319 321 323 325 326 325 325 329 333 334 334 333 334 336 334 332 331 328 327 326 320 311 301 294 289 286 285
253 253 253 252 250 249 249 250 249 249 250 250 250 251 251 249 247 245 244 243 243 243 244 246 247 247 246 247 247 245 243 241 241 240 239 240 242 242 244 248 252 255 257 257 258 261 265 270 278 286 289 291 296 303 310 316 317 316 317 319 322 322 321 321 326 331 334 335 336 335 336 337 336 335 334 333 335 337 330 320 311 305 300 295 291
253 253 253 253 251 251 251 251 250 250 250 250 250 250 250 248 246 244 243 243 242 242 243 244 245 246 246 246 244 242 240 238 237 238 239 240 241 241 243 247 250 252 254 256 258 262 267 272 279 285 289 294 300 306 313 315 314 316 316 313 316 318 318 322 330 336 338 337 336 335 336 336 336 336 336 335 337 337 329 321 317 313 309 305 298
252 252 252 252 251 250 250 248 248 247 247 248 249 249 248 246 244 242 242 241 241 241 241 241 241 242 242 242 240 237 236 236 236 237 238 238 239 240 242 244 246 249 254 259 263 266 270 274 278 283 289 295 300 305 311 311 310 312 312 311 315 320 321 325 333 339 339 336 332 331 333 334 335 334 333 334 337 335 329 326 323 319 316 310 304
250 250 250 249 247 246 245 245 244 244 245 245 246 246 245 242 240 239 239 239 239 238 239 239 239 239 239 239 238 236 236 236 235 234 235 236 239 241 243 246 249 253 257 261 262 263 266 270 275 281 287 292 299 305 309 308 305 307 310 312 317 323 325 327 334 337 334 331 328 328 330 332 332 331 331 331 334 333 331 330 328 323 321 317 310
247 246 244 243 242 242 242 242 241 241 241 242 242 242 240 238 236 236 235 236 237 237 238 238 237 238 238 237 235 233 232 231 231 232 234 236 239 242 246 249 252 254 255 256 257 259 263 266 271 277 282 289 298 303 303 302 302 306 311 313 316 322 324 324 329 334 331 327 325 324 327 331 330 328 328 329 331 331 330 331 330 327 324 321 316
242 241 240 240 239 239 239 238 238 238 239 239 239 237 236 234 233 232 233 233 234 235 235 235 234 234 233 231 229 228 229 230 232 234 236 239 242 246 250 252 252 251 251 254 255 258 260 261 265 272 277 284 292 294 296 298 302 306 311 315 318 321 321 320 323 328 328 325 322 320 323 329 327 324 327 329 329 329 329 331 332 329 326 322 318
237 237 237 238 237 236 236 235 235 235 236 236 236 235 234 233 231 230 230 229 229 230 229 229 228 227 225 225 226 228 230 232 234 236 239 242 245 248 249 250 250 250 251 252 253 253 255 255 258 265 272 279 283 286 292 299 303 307 311 315 318 318 318 318 318 322 325 323 320 317 318 325 326 323 326 329 327 327 329 331 333 331 326 323 319
235 235 236 236 235 235 234 234 234 235 235 235 234 234 233 231 229 227 226 225 224 223 222 222 222 222 223 225 227 229 231 233 235 238 241 244 246 247 247 246 246 246 246 247 248 250 251 253 256 261 270 277 279 285 295 299 302 307 310 312 314 312 312 313 312 315 321 322 318 315 315 322 326 322 323 327 326 326 327 329 333 333 329 326 324
235 235 236 235 234 233 233 234 235 235 235 234 233 232 230 227 225 222 220 219 218 218 219 220 222 223 225 227 229 231 232 234 237 239 242 245 245 245 243 241 240 241 242 243 245 248 250 254 258 264 270 275 280 290 298 300 303 307 307 307 308 306 304 305 305 310 317 318 314 312 312 318 324 320 320 324 324 323 324 326 330 332 329 327 327
235 235 234 233 233 233 233 234 235 235 234 233 232 230 227 224 220 218 218 217 218 219 220 222 224 226 227 229 231 232 234 236 238 241 242 242 241 239 237 236 236 237 239 242 245 248 251 255 261 266 268 273 283 293 297 299 303 305 304 303 303 300 299 300 301 305 310 310 310 310 309 314 321 317 315 319 320 319 321 322 325 329 328 327 328
235 234 233 233 232 232 232 232 233 233 233 232 231 229 226 224 221 220 220 221 221 222 222 223 225 226 227 230 232 234 236 237 238 238 237 234 233 232 231 232 234 236 240 243 246 250 255 259 264 268 268 273 284 292 296 298 299 299 298 297 298 298 296 296 298 302 305 305 307 308 307 311 317 313 311 315 315 315 318 318 320 323 323 323 328
233 232 231 231 231 231 230 230 230 231 231 231 230 228 225 224 223 223 222 222 222 222 223 223 224 226 228 231 233 235 235 234 232 229 227 227 227 229 230 232 233 235 240 244 246 252 259 264 267 270 272 276 282 288 292 294 293 293 291 291 294 294 293 295 299 302 303 304 306 307 305 307 312 310 309 312 312 312 314 314 315 318 318 318 324
232 230 229 228 228 228 227 228 229 230 230 230 228 226 224 223 223 222 221 220 220 221 222 224 226 228 229 230 231 230 227 224 223 223 224 225 226 229 230 231 233 236 241 246 249 254 259 262 265 269 273 277 282 286 290 290 290 289 288 289 292 292 291 294 298 301 301 301 303 304 301 303 308 307 306 308 308 309 311 312 312 314 314 315 319
231 229 227 226 226 225 225 226 227 228 228 227 225 223 221 220 221 222 222 221 221 221 223 224 225 225 224 222 221 220 219 220 221 223 224 226 227 230 232 234 236 238 242 247 251 253 256 258 262 267 274 281 285 289 290 289 288 287 287 289 290 289 290 293 296 299 299 300 302 302 299 301 305 305 304 306 307 307 309 310 310 311 312 312 314
228 226 225 224 223 222 222 222 222 223 222 221 221 220 219 219 221 222 224 224 223 222 220 219 218 216 215 215 216 218 220 221 223 224 225 228 231 234 238 240 240 239 243 248 252 256 259 262 267 273 279 284 287 288 288 287 286 286 286 288 288 288 290 292 293 296 296 297 300 301 299 300 301 301 302 305 306 307 308 308 308 309 310 310 310